Independence of the Seas — C6WW4 — position and weather

sailwx.info

Track history (hours):
 
Tides and Currents Weather Stations Pressure Air Temp Water Temp Dewpoint Dewpoint Depression Visibility Wind Speed Wind Dir Waves Ship Positions

Independence of the Seas

Last reported at 2014-Sep-01 18:20 UTC. Time now 2014-Sep-01 19:02 UTC.
Position N 38°30' E 001°23'.

Length 339 m; draft 8.8 m.

Type: Passenger vessel. MMSI: 309374000.

Date/timePositionNaut miles runAvg speedWind from/ knotsBaromVisibWave heightAir tempDewpointWater temp
2014-Sep-01 18:20N 38°30' E 001°23'1113.3
2014-Sep-01 17:29N 38°37' E 001°35'1713.7
2014-Sep-01 16:16N 38°53' E 001°29'47 3.0
2014-Sep-01 00:22N 39°18' E 002°20'1 0.6
2014-Aug-31 22:26N 39°18' E 002°21'1 0.6
2014-Aug-31 21:24N 39°17' E 002°22'1 0.9
2014-Aug-31 20:34N 39°17' E 002°23'4 3.9
2014-Aug-31 19:28N 39°20' E 002°27'7 7.1
2014-Aug-31 18:29N 39°25' E 002°33'6 5.7
2014-Aug-31 17:24N 39°30' E 002°37'3 2.5
2014-Aug-31 16:15N 39°33' E 002°38'0 0.0
2014-Aug-31 15:33N 39°33' E 002°38'0 0.0
2014-Aug-31 14:33N 39°33' E 002°38'0 0.0
2014-Aug-31 13:30N 39°33' E 002°38'0 0.0
2014-Aug-31 12:33N 39°33' E 002°38'0 0.0
2014-Aug-31 11:33N 39°33' E 002°38'0 0.0
2014-Aug-31 10:33N 39°33' E 002°38'0 0.0
2014-Aug-31 09:33N 39°33' E 002°38'0 0.0
2014-Aug-31 08:33N 39°33' E 002°38'0 0.0
2014-Aug-31 07:33N 39°33' E 002°38'0 0.2
2014-Aug-31 06:33N 39°33' E 002°38'4 4.3
2014-Aug-31 05:33N 39°29' E 002°36'5 5.5
2014-Aug-31 04:33N 39°25' E 002°31'10 9.9
2014-Aug-31 03:30N 39°31' E 002°19'19 9.8
2014-Aug-31 01:33N 39°50' E 002°14'10 9.6
2014-Aug-31 00:33N 39°60' E 002°15'10 9.8
2014-Aug-30 23:33N 40°09' E 002°14'1010.3
2014-Aug-30 22:33N 40°20' E 002°14'1110.6
2014-Aug-30 21:33N 40°30' E 002°13'1111.0
2014-Aug-30 20:33N 40°41' E 002°13'1111.4
2014-Aug-30 19:33N 40°53' E 002°12'1111.2
2014-Aug-30 18:33N 41°04' E 002°12'1110.4
2014-Aug-30 17:30N 41°15' E 002°11'2 0.2
2014-Aug-30 04:33N 41°13' E 002°09'1312.9
2014-Aug-30 03:33N 41°02' E 002°00'1312.5
2014-Aug-30 02:32N 40°53' E 001°48'1212.3
2014-Aug-30 01:33N 40°45' E 001°36'1212.3
2014-Aug-30 00:33N 40°37' E 001°24'1212.3
2014-Aug-29 23:33N 40°28' E 001°12'1212.5
2014-Aug-29 22:33N 40°20' E 001°01'1814.5
2014-Aug-29 21:18N 40°08' E 000°43'7 9.5
2014-Aug-29 20:33N 40°03' E 000°36'5012.4
2014-Aug-29 16:31N 39°29' W 000°12'5 0.5
2014-Aug-29 05:31N 39°27' W 000°18'5617.3
2014-Aug-29 02:17N 38°43' E 000°27'4220.1
2014-Aug-29 00:11N 38°07' W 000°01'3320.0
2014-Aug-28 22:33N 37°40' W 000°24'2020.0
2014-Aug-28 21:33N 37°25' W 000°42'2119.6
2014-Aug-28 20:30N 37°12' W 001°02'1819.2
2014-Aug-28 19:33N 37°00' W 001°19'1919.4
2014-Aug-28 18:33N 36°46' W 001°36'30819.2
2014-Aug-28 02:33N 36°18' W 007°57'4320.1
2014-Aug-28 00:25N 36°28' W 008°49'2220.5
2014-Aug-27 23:22N 36°34' W 009°15'1619.7
2014-Aug-27 22:33N 36°45' W 009°29'10519.4
2014-Aug-27 17:08N 38°30' W 009°24'1117.6
2014-Aug-27 16:31N 38°40' W 009°19'7 6.9
2014-Aug-27 15:33N 38°42' W 009°10'0 0.0
2014-Aug-27 14:33N 38°42' W 009°10'0 0.0
2014-Aug-27 13:33N 38°42' W 009°10'0 0.0
2014-Aug-27 12:33N 38°42' W 009°10'0 0.0
2014-Aug-27 11:33N 38°42' W 009°10'0 0.0
2014-Aug-27 10:30N 38°42' W 009°10'0 0.0
2014-Aug-27 09:33N 38°42' W 009°10'0 0.0
2014-Aug-27 08:33N 38°42' W 009°10'0 0.0
2014-Aug-27 07:33N 38°42' W 009°10'6 5.8
2014-Aug-27 06:34N 38°41' W 009°18'1615.8
2014-Aug-27 05:33N 38°38' W 009°38'  
2014-Aug-23 20:29N 50°26' W 001°23'1310.8
2014-Aug-23 19:18N 50°32' W 001°05'23 1.5
2014-Aug-23 03:34N 50°52' W 001°23'9 9.0
2014-Aug-23 02:33N 50°46' W 001°13'1212.2
2014-Aug-23 01:33N 50°37' W 000°59'  
Track history (hours):
 
Tides and Currents Weather Stations Pressure Air Temp Water Temp Dewpoint Dewpoint Depression Visibility Wind Speed Wind Dir Waves Ship Positions

Independence of the Seas

Last reported at 2014-Sep-01 18:20 UTC. Time now 2014-Sep-01 19:02 UTC.
Position N 38°30' E 001°23'.

Length 339 m; draft 8.8 m.

Type: Passenger vessel. MMSI: 309374000.

Date/timePositionNaut miles runAvg speedWind from/ knotsBaromVisibWave heightAir tempDewpointWater temp
2014-Sep-01 18:20N 38°30' E 001°23'1113.3
2014-Sep-01 17:29N 38°37' E 001°35'1713.7
2014-Sep-01 16:16N 38°53' E 001°29'47 3.0
2014-Sep-01 00:22N 39°18' E 002°20'1 0.6
2014-Aug-31 22:26N 39°18' E 002°21'1 0.6
2014-Aug-31 21:24N 39°17' E 002°22'1 0.9
2014-Aug-31 20:34N 39°17' E 002°23'4 3.9
2014-Aug-31 19:28N 39°20' E 002°27'7 7.1
2014-Aug-31 18:29N 39°25' E 002°33'6 5.7
2014-Aug-31 17:24N 39°30' E 002°37'3 2.5
2014-Aug-31 16:15N 39°33' E 002°38'0 0.0
2014-Aug-31 15:33N 39°33' E 002°38'0 0.0
2014-Aug-31 14:33N 39°33' E 002°38'0 0.0
2014-Aug-31 13:30N 39°33' E 002°38'0 0.0
2014-Aug-31 12:33N 39°33' E 002°38'0 0.0
2014-Aug-31 11:33N 39°33' E 002°38'0 0.0
2014-Aug-31 10:33N 39°33' E 002°38'0 0.0
2014-Aug-31 09:33N 39°33' E 002°38'0 0.0
2014-Aug-31 08:33N 39°33' E 002°38'0 0.0
2014-Aug-31 07:33N 39°33' E 002°38'0 0.2
2014-Aug-31 06:33N 39°33' E 002°38'4 4.3
2014-Aug-31 05:33N 39°29' E 002°36'5 5.5
2014-Aug-31 04:33N 39°25' E 002°31'10 9.9
2014-Aug-31 03:30N 39°31' E 002°19'19 9.8
2014-Aug-31 01:33N 39°50' E 002°14'10 9.6
2014-Aug-31 00:33N 39°60' E 002°15'10 9.8
2014-Aug-30 23:33N 40°09' E 002°14'1010.3
2014-Aug-30 22:33N 40°20' E 002°14'1110.6
2014-Aug-30 21:33N 40°30' E 002°13'1111.0
2014-Aug-30 20:33N 40°41' E 002°13'1111.4
2014-Aug-30 19:33N 40°53' E 002°12'1111.2
2014-Aug-30 18:33N 41°04' E 002°12'1110.4
2014-Aug-30 17:30N 41°15' E 002°11'2 0.2
2014-Aug-30 04:33N 41°13' E 002°09'1312.9
2014-Aug-30 03:33N 41°02' E 002°00'1312.5
2014-Aug-30 02:32N 40°53' E 001°48'1212.3
2014-Aug-30 01:33N 40°45' E 001°36'1212.3
2014-Aug-30 00:33N 40°37' E 001°24'1212.3
2014-Aug-29 23:33N 40°28' E 001°12'1212.5
2014-Aug-29 22:33N 40°20' E 001°01'1814.5
2014-Aug-29 21:18N 40°08' E 000°43'7 9.5
2014-Aug-29 20:33N 40°03' E 000°36'5012.4
2014-Aug-29 16:31N 39°29' W 000°12'5 0.5
2014-Aug-29 05:31N 39°27' W 000°18'5617.3
2014-Aug-29 02:17N 38°43' E 000°27'4220.1
2014-Aug-29 00:11N 38°07' W 000°01'3320.0
2014-Aug-28 22:33N 37°40' W 000°24'2020.0
2014-Aug-28 21:33N 37°25' W 000°42'2119.6
2014-Aug-28 20:30N 37°12' W 001°02'1819.2
2014-Aug-28 19:33N 37°00' W 001°19'1919.4
2014-Aug-28 18:33N 36°46' W 001°36'30819.2
2014-Aug-28 02:33N 36°18' W 007°57'4320.1
2014-Aug-28 00:25N 36°28' W 008°49'2220.5
2014-Aug-27 23:22N 36°34' W 009°15'1619.7
2014-Aug-27 22:33N 36°45' W 009°29'10519.4
2014-Aug-27 17:08N 38°30' W 009°24'1117.6
2014-Aug-27 16:31N 38°40' W 009°19'7 6.9
2014-Aug-27 15:33N 38°42' W 009°10'0 0.0
2014-Aug-27 14:33N 38°42' W 009°10'0 0.0
2014-Aug-27 13:33N 38°42' W 009°10'0 0.0
2014-Aug-27 12:33N 38°42' W 009°10'0 0.0
2014-Aug-27 11:33N 38°42' W 009°10'0 0.0
2014-Aug-27 10:30N 38°42' W 009°10'0 0.0
2014-Aug-27 09:33N 38°42' W 009°10'0 0.0
2014-Aug-27 08:33N 38°42' W 009°10'0 0.0
2014-Aug-27 07:33N 38°42' W 009°10'6 5.8
2014-Aug-27 06:34N 38°41' W 009°18'1615.8
2014-Aug-27 05:33N 38°38' W 009°38'  
2014-Aug-23 20:29N 50°26' W 001°23'1310.8
2014-Aug-23 19:18N 50°32' W 001°05'23 1.5
2014-Aug-23 03:34N 50°52' W 001°23'9 9.0
2014-Aug-23 02:33N 50°46' W 001°13'1212.2
2014-Aug-23 01:33N 50°37' W 000°59'  

Dump ship's entire track history